GSAT0210 (PRN E01)

Last updated on Sat Jul 20 2024 00:03:12 GMT+0000 (Coordinated Universal Time)

1 41550U 16030B 24184.62718941 .00000039 00000+0 00000+0 0 9992 2 41550 55.3572 241.3529 0003113 263.9843 96.0701 1.70473946 50484
UTC large
Height (km)
Speed (km/s)
/
Latitude / Longitude
Inclination (degrees)
Orbital Period (minutes)
Azimuth
Elevation
Range (km)
Doppler Factor

Next 0 passes for location: London (51.5072 / 0.1276)

Sorry there are no passes over London.